Terminal Aerodrome Forecast
Issued by NWS

Home | Current Version | Previous Version | Graphics & Text | Print | Product List | Glossary Off
Versions: 1 2 3 4 5 6 7 8 9 10 11 12 13 14 15 16 17 18 19 20 21 22 23 24 25 26 27 28 29 30 31 32 33 34 35 36 37

000
FTUS43 KDDC 272340
TAFHYS
TAF
KHYS 272340Z 2800/2824 12011KT P6SM VCTS FEW060CB BKN100
      TEMPO 2800/2803 VRB20G30KT 3SM TSRA BKN050CB
     FM280400 14011KT P6SM SCT090
     FM281400 19012G20KT P6SM FEW030=

USA.gov is the U.S. government's official web portal to all federal, state and local government web resources and services.